カタログに戻る

STARLINK-5320

運用中通信VLEO
NORAD 55289·PAYLOAD·🇺🇸 United States

打ち上げ Jan 19, 2023 から Vandenberg Space Force Base

Loading…

次のパス (今後24時間)

TLE

最新Source: CelesTrak SupGP

元期: Sep 15, 2026, 01:21 UTC

1 55289C 23010W   26258.05673611 -.00007131  00000+0 -59745-3 0  2581
2 55289  69.9995 267.0786 0004156 266.4045  48.6550 14.98342702    16

AllMySatでSTARLINK-5320をリアルタイム追跡

Download on the App Store